Skip Page Navigation
NASA JPL Caltech
NASA Logo - Jet Propulsion Laboratory + View the NASA Portal
+ Near-Earth Object (NEO) Program
Search JPL
JPL Home Earth Solar System Stars & Galaxies Technology
JPL Solar System Dynamics
BODIES ORBITS EPHEMERIDES TOOLS PHYSICAL DATA DISCOVERY FAQ SITE MAP
JPL Small-Body Database Browser
Search: [ help ]  
18321 Bobrov (1982 UQ10)
Classification: Main-belt Asteroid          SPK-ID: 2018321
Ephemeris | Orbit Diagram | Orbital Elements | Physical Parameters | Discovery Circumstances | Close-Approach Data ]

[ show orbit diagram ]
Orbital Elements at Epoch 2457000.5 (2014-Dec-09.0) TDB
Reference: JPL 14 (heliocentric ecliptic J2000)
 Element Value Uncertainty (1-sigma)   Units 
e .2808679330662317 4.8679e-08  
a 2.700791495591774 1.7406e-08 AU
q 1.942225770582056 1.3489e-07 AU
i 3.326828723978893 9.2712e-06 deg
node 24.31868402319165 8.973e-05 deg
peri 61.76324387289693 9.1347e-05 deg
M 53.21949961267035 1.626e-05 deg
tp 2456760.835726476756
(2014-Apr-13.33572648)
7.2391e-05 JED
period 1621.194094200515
4.44
1.5672e-05
4.291e-08
d
yr
n .2220585439385853 2.1466e-09 deg/d
Q 3.459357220601492 2.2294e-08 AU
  Orbit Determination Parameters
   # obs. used (total)      827  
   data-arc span      11891 days (32.56 yr)  
   first obs. used      1982-10-25  
   last obs. used      2015-05-16  
   planetary ephem.      DE431  
   SB-pert. ephem.      SB431-BIG16  
   condition code      0  
   fit RMS      .48557  
   data source      ORB  
   producer      Otto Matic  
   solution date      2015-Jun-04 16:31:19  

Additional Information
 Earth MOID = .960753 AU 
 T_jup = 3.307 
[ show covariance matrix ]

Ephemeris | Orbit Diagram | Orbital Elements | Physical Parameters | Discovery Circumstances | Close-Approach Data ]

Physical Parameter Table
Parameter Symbol Value Units Sigma Reference Notes
absolute magnitude H 14.3 mag n/a MPO337413  

18321 Bobrov           Discovered 1982 Oct. 25 by L. V. Zhuravleva at the Crimean Astrophysical Observatory.
Vsevolod Mikhajlovich Bobrov (1922-1979) was an ice hockey champion of the 1956 winter Olympic games, a world champion in 1954 and 1956, a champion of Europe from 1954 to 1956 for ice-hockey and repeated champion of the former U.S.S.R. for football and hockey from 1945 to 1956.
NOTE: some special characters may not display properly (any characters within {} are an attempt to place the proper accent above a character)
Reference: 20051215/MPCPages.arcLast Updated: 2006-03-22

[ show close-approach data ]
Alternate Designations
 1982 UQ10 = 1991 VS1 
Ephemeris | Orbit Diagram | Orbital Elements | Physical Parameters | Discovery Circumstances | Close-Approach Data ]
ABOUT SSD CREDITS/AWARDS PRIVACY/COPYRIGHT GLOSSARY LINKS
FirstGov 2015-Jul-31 19:27 UT
(server date/time)  
NASA Home Page
Site Manager:   Ryan S. Park
Webmaster  Alan B. Chamberlin